Weather History for KCUL - March, 2013

Change the Weather History Date:

Monday, March 4, 2013

  Actual Average (KEVV) Record (KEVV)
Temperature  
Mean Temperature 42 °F 42 °F  
Max Temperature 49 °F 52 °F 82 °F (1983)
Min Temperature 34 °F 32 °F -3 °F (1978)
Degree Days  
Heating Degree Days 24 23  
Month to date heating degree days 94  
Since 1 July heating degree days 3668  
Cooling Degree Days 0 0  
Month to date cooling degree days 0  
Year to date cooling degree days 0  
Moisture  
Dew Point 31 °F    
Average Humidity 65    
Maximum Humidity 84    
Minimum Humidity 53    
Precipitation  
Precipitation 0.00 in 0.12 in 3.59 in (1964)
Month to date precipitation 0.46  
Year to date precipitation 6.73  
Snow  
Snow 0.00 in 0.00 in 0.20 in (1965)
Month to date snowfall 0.2  
Since 1 July snowfall 10.9  
Snow Depth -    
Sea Level Pressure  
Sea Level Pressure 29.97 in    
Wind  
Wind Speed 10 mph (ESE)    
Max Wind Speed 24 mph    
Max Gust Speed 30 mph    
Visibility 10 miles    
Events Rain , Snow    
T = Trace of Precipitation, MM = Missing Value Source: NWS Daily Summary

Daily Weather History Graph

Daily Weather History Graph

Search for Another Location

Airport or City:

Trip Planner

Search our weather history database for the weather conditions in past years. The results will help you decide how hot, cold, wet, or windy it might be!

Date:

Astronomy

Mar. 04, 2013 Rise Set
Actual Time 6:19 AM CST 5:49 PM CST
Civil Twilight 5:53 AM CST 6:15 PM CST
Nautical Twilight 5:22 AM CST 6:46 PM CST
Astronomical Twilight 4:52 AM CST 7:16 PM CST
Moon 12:25 AM CST (3/4) 10:34 AM CST (3/4)
Length of Visible Light 12h 22m
Length of Day
11h 29m
Waning Gibbous, 52% of the Moon is Illuminated
Mar 4
Waning Gibbous
Mar 4
Last Quarter
Mar 11
New
Mar 19
First Quarter
Mar 27
Full

Hourly Weather History & Observations

Time (CST) Temp. Windchill Dew Point Humidity Pressure Visibility Wind Dir Wind Speed Gust Speed Precip Events Conditions
12:15 AM 34.0 °F 29.8 °F 29.7 °F 84% 30.10 in 10.0 mi East 4.6 mph - N/A   Overcast
12:35 AM 34.0 °F 31.0 °F 28.6 °F 81% 30.11 in 10.0 mi East 3.5 mph - N/A   Overcast
12:55 AM 34.3 °F - 28.8 °F 80% 30.11 in 10.0 mi Calm Calm - N/A   Overcast
1:15 AM 34.3 °F 31.4 °F 28.8 °F 80% 30.11 in 10.0 mi ESE 3.5 mph - N/A   Overcast
1:55 AM 34.7 °F 28.8 °F 27.7 °F 76% 30.12 in 10.0 mi SE 6.9 mph - N/A   Overcast
2:15 AM 34.7 °F 30.6 °F 27.9 °F 76% 30.11 in 10.0 mi SE 4.6 mph - N/A   Overcast
2:35 AM 34.7 °F 30.6 °F 28.0 °F 77% 30.11 in 10.0 mi ESE 4.6 mph - N/A   Overcast
2:55 AM 34.3 °F 29.2 °F 28.6 °F 79% 30.10 in 10.0 mi SE 5.8 mph - N/A   Overcast
3:15 AM 34.7 °F 28.8 °F 28.9 °F 79% 30.10 in 10.0 mi ESE 6.9 mph - N/A   Overcast
3:35 AM 34.9 °F 28.3 °F 28.2 °F 77% 30.09 in 10.0 mi East 8.1 mph - N/A   Overcast
3:55 AM 34.9 °F 27.7 °F 27.7 °F 75% 30.09 in 10.0 mi ESE 9.2 mph - N/A   Overcast
4:15 AM 34.9 °F 27.7 °F 27.3 °F 74% 30.09 in 10.0 mi ESE 9.2 mph - N/A   Overcast
4:35 AM 34.9 °F 27.7 °F 27.0 °F 73% 30.09 in 10.0 mi ESE 9.2 mph - N/A   Overcast
4:55 AM 34.9 °F 27.1 °F 25.9 °F 70% 30.08 in 10.0 mi East 10.4 mph - N/A   Overcast
5:15 AM 34.9 °F 27.7 °F 25.9 °F 70% 30.09 in 10.0 mi SE 9.2 mph - N/A   Overcast
5:35 AM 34.7 °F 28.1 °F 26.6 °F 72% 30.08 in 10.0 mi ESE 8.1 mph - N/A   Overcast
5:55 AM 34.7 °F 28.1 °F 27.1 °F 74% 30.08 in 10.0 mi ESE 8.1 mph - N/A Rain Light Rain
6:15 AM 34.3 °F 27.7 °F 27.5 °F 76% 30.09 in 10.0 mi ESE 8.1 mph - N/A Rain Light Rain
6:35 AM 34.3 °F 27.7 °F 28.0 °F 78% 30.08 in 10.0 mi ESE 8.1 mph - N/A   Overcast
6:55 AM 34.3 °F 26.5 °F 28.4 °F 79% 30.07 in 10.0 mi ESE 10.4 mph - N/A Snow Light Snow
7:15 AM 34.3 °F 25.9 °F 28.4 °F 79% 30.07 in 10.0 mi ESE 11.5 mph - N/A   Mostly Cloudy
7:35 AM 34.7 °F 26.4 °F 28.2 °F 77% 30.07 in 10.0 mi ESE 11.5 mph - N/A   Scattered Clouds
7:55 AM 35.2 °F 26.6 °F 27.5 °F 73% 30.07 in 10.0 mi SE 12.7 mph - N/A   Mostly Cloudy
8:15 AM 36.0 °F 27.1 °F 27.3 °F 71% 30.06 in 10.0 mi ESE 13.8 mph - N/A   Scattered Clouds
8:35 AM 36.9 °F 29.1 °F 27.3 °F 68% 30.06 in 10.0 mi ESE 11.5 mph - N/A   Clear
8:55 AM 38.1 °F 29.5 °F 28.2 °F 68% 30.05 in 10.0 mi ESE 15.0 mph - N/A   Scattered Clouds
9:15 AM 38.5 °F 29.2 °F 28.9 °F 69% 30.05 in 10.0 mi SE 17.3 mph - N/A   Mostly Cloudy
9:35 AM 40.1 °F 30.7 °F 28.6 °F 63% 30.05 in 10.0 mi SE 19.6 mph - N/A   Scattered Clouds
9:55 AM 40.1 °F 32.0 °F 29.3 °F 65% 30.03 in 10.0 mi ESE 15.0 mph - N/A   Mostly Cloudy
10:15 AM 41.4 °F 33.3 °F 29.5 °F 63% 30.02 in 10.0 mi ESE 16.1 mph - N/A   Overcast
10:35 AM 42.6 °F 34.0 °F 30.7 °F 63% 30.00 in 10.0 mi ESE 19.6 mph - N/A   Mostly Cloudy
10:55 AM 43.3 °F 35.0 °F 31.1 °F 62% 29.99 in 10.0 mi ESE 19.6 mph 24.2 mph N/A   Scattered Clouds
11:15 AM 44.1 °F 35.9 °F 30.7 °F 59% 29.99 in 10.0 mi ESE 19.6 mph - N/A   Clear
11:35 AM 45.5 °F 37.8 °F 31.8 °F 59% 29.97 in 10.0 mi East 19.6 mph 24.2 mph N/A   Clear
11:55 AM 46.6 °F - 32.4 °F 58% 29.96 in 10.0 mi SE 18.4 mph 25.3 mph N/A   Clear
12:15 PM 47.1 °F - 33.1 °F 58% 29.94 in 10.0 mi SE 21.9 mph 25.3 mph N/A   Clear
12:35 PM 46.6 °F - 33.1 °F 59% 29.92 in 10.0 mi ESE 21.9 mph - N/A   Clear
12:55 PM 47.3 °F - 32.9 °F 57% 29.91 in 10.0 mi ESE 17.3 mph - N/A   Clear
1:15 PM 48.6 °F - 33.4 °F 56% 29.90 in 10.0 mi ESE 24.2 mph 28.8 mph N/A   Clear
1:35 PM 48.7 °F - 33.3 °F 55% 29.88 in 10.0 mi ESE 20.7 mph 29.9 mph N/A   Clear
1:55 PM 48.4 °F - 32.4 °F 54% 29.87 in 10.0 mi ESE 23.0 mph 28.8 mph N/A   Scattered Clouds
2:15 PM 48.7 °F - 32.7 °F 54% 29.86 in 10.0 mi ESE 23.0 mph 26.5 mph N/A   Scattered Clouds
2:35 PM 49.3 °F - 33.8 °F 55% 29.86 in 10.0 mi ESE 19.6 mph - N/A   Mostly Cloudy
3:15 PM 48.7 °F - 32.9 °F 54% 29.87 in 10.0 mi ESE 17.3 mph 23.0 mph N/A   Overcast
3:35 PM 48.6 °F - 32.2 °F 53% 29.87 in 10.0 mi ESE 16.1 mph - N/A   Overcast
3:55 PM 48.7 °F - 32.4 °F 53% 29.87 in 10.0 mi East 13.8 mph - N/A   Overcast
4:15 PM 48.7 °F - 33.1 °F 55% 29.86 in 10.0 mi East 12.7 mph - N/A   Overcast
4:35 PM 48.7 °F - 33.4 °F 56% 29.86 in 10.0 mi East 10.4 mph - N/A   Overcast
4:55 PM 47.8 °F - 34.0 °F 59% 29.85 in 10.0 mi East 13.8 mph - N/A   Overcast
5:15 PM 47.5 °F - 33.4 °F 58% 29.85 in 10.0 mi East 11.5 mph - N/A   Overcast
5:35 PM 47.5 °F - 33.1 °F 57% 29.86 in 10.0 mi East 11.5 mph - N/A   Overcast
5:55 PM 47.3 °F - 32.7 °F 57% 29.86 in 10.0 mi East 12.7 mph - N/A   Overcast
6:15 PM 47.1 °F - 32.2 °F 56% 29.87 in 10.0 mi East 11.5 mph - N/A   Overcast
6:35 PM 46.9 °F - 32.2 °F 57% 29.87 in 10.0 mi East 12.7 mph - N/A   Overcast
6:55 PM 46.9 °F - 32.4 °F 57% 29.87 in 10.0 mi East 11.5 mph - N/A   Overcast
7:15 PM 46.6 °F - 32.4 °F 58% 29.87 in 10.0 mi East 10.4 mph - N/A   Overcast
7:55 PM 46.6 °F - 32.4 °F 58% 29.87 in 10.0 mi East 8.1 mph - N/A   Overcast
8:35 PM 46.4 °F 41.1 °F 32.9 °F 59% 29.87 in 10.0 mi ESE 11.5 mph - N/A   Overcast
8:55 PM 46.8 °F - 32.5 °F 58% 29.86 in 10.0 mi ESE 11.5 mph - N/A   Overcast
9:15 PM 46.9 °F - 32.9 °F 58% 29.86 in 10.0 mi ESE 10.4 mph - N/A   Overcast
9:35 PM 47.3 °F - 32.7 °F 57% 29.86 in 10.0 mi ESE 9.2 mph - N/A   Overcast
9:55 PM 47.3 °F - 33.1 °F 58% 29.85 in 10.0 mi East 6.9 mph - N/A   Overcast
10:15 PM 46.8 °F - 34.3 °F 62% 29.85 in 10.0 mi East 5.8 mph - N/A   Overcast
10:35 PM 47.1 °F - 34.9 °F 62% 29.85 in 10.0 mi ENE 4.6 mph - N/A   Overcast
10:57 PM 46.4 °F 43.5 °F 35.6 °F 66% 29.84 in 10.0 mi ENE 5.8 mph - N/A   Overcast
11:17 PM 46.4 °F 42.9 °F 35.6 °F 66% 29.83 in 10.0 mi ENE 6.9 mph - N/A   Overcast
11:35 PM 46.0 °F 43.1 °F 34.7 °F 65% 29.82 in 10.0 mi ENE 5.8 mph - N/A   Overcast
11:55 PM 46.4 °F 43.5 °F 34.9 °F 64% 29.82 in 10.0 mi East 5.8 mph - N/A   Overcast